Location: Home
(42.5358°N, 72.7383°W)
Time: 02:34:59
(UTC-05:00)

Vanguard 1 Rocket - Pass Details

Date: 02 December 2021
Orbit: 651 x 4224 km, 34.3° (Epoch: 23 January)

Event Time Altitude Azimuth Distance (km) Brightness Sun altitude
Exits shadow 05:39:41 13° 263° (W) 4,894 10.5 -14.8°
Maximum altitude 05:55:05 65° 188° (S) 3,792 10.5 -12.1°
Drops below altitude 10° 06:20:32 10° 114° (ESE) 7,416 13.8 -7.7°
Sets 06:26:18 0° 112° (ESE) 8,351 15.1 -6.8°
